Orbital elements:
2019 EO2                                                 Earth MOID = 0.0183 AU
Epoch 2019 Apr. 27.0 TT = JDT 2458600.5                 MPC
M  70.42364              (2000.0)            P               Q
n   0.74852633     Peri.  122.28063     -0.42899071     -0.90207252
a   1.2013365      Node   352.63962     +0.65381221     -0.27398755
e   0.2297406      Incl.   21.64099     +0.62329492     -0.33346064
P   1.32           H   23.5           G   0.15           U   6
Residuals in seconds of arc
190314 T08  0.2-  0.5-    190314 511  0.5+  1.3+    190316 I47  0.2+  0.7+
190314 T08  0.4-  0.7-    190314 511  0.4+  1.1+    190316 I47  0.1+  0.4+
190314 T08 (0.0   2.3-)   190314 C95  0.4-  0.9-    190316 I47  0.2+  0.2+
190314 T08  0.4-  0.7-    190314 C95  0.3-  0.9-    190316 G40  1.2-  0.2+
190314 T08  0.2-  0.4-    190315 703  0.5+  0.1-    190316 G40  0.8-  1.1-
190314 T08  0.3-  0.4-    190315 703  0.3-  0.5-    190316 G40  0.6-  0.3-
190314 T08  0.4-  0.5-    190315 703  0.3-  0.4-    190316 G40  1.0-  0.2+
190314 T08  0.3-  0.5-    190315 703  0.3+  0.1-    190316 H21  0.3-  0.2-
190314 T08  0.2-  0.6-    190315 Q67  0.6-  0.8-    190316 H21  0.4-  0.2-
190314 T08  0.4-  0.8-    190315 Q67  0.9-  1.3-    190316 H21  0.2-  0.1-
190314 511  0.3+  0.4+    190315 587  0.0   0.3-    190316 H21  0.1-  0.1-
190314 511  0.6+  1.2+    190315 595  0.6-  0.6-    190316 H21  0.2-  0.5-
190314 511  0.4+  0.9+    190315 587  0.3-  0.6-    190316 H21  0.2-  0.3-
190314 511  0.3+  0.9+    190315 587  0.0   0.7-    190316 L01  0.2-  0.0
190314 511  0.7+  1.0+    190315 595  0.5-  0.7-    190316 L01  0.2+  0.1+
190314 511  0.5+  1.1+    190315 L04  0.2-  1.1-    190316 L01  0.9+  0.1-
190314 511  0.6+  1.0+    190315 L04  0.3+  0.9-    190316 L01  0.7+  0.2+
190314 C95  0.5-  1.1-    190315 L04  0.1+  0.6-    190317 H21  0.4+  0.4+
190314 511  0.5+  1.1+    190315 595  0.1-  0.8-    190317 H21  0.4+  0.5+
190314 C95  0.1+  0.6-    190315 X31  0.1-  0.3+    190317 H21  0.5+  0.3+
190314 511  0.4+  1.1+    190315 X31  0.1+  0.1-    190317 I52  0.1-  0.5+
190314 511  0.4+  1.0+    190315 X31  0.1-  0.1-    190317 I52  0.1-  0.5+
190314 511  0.5+  1.0+    190316 I47  0.2+  0.2+    190317 I52  0.2+  0.5+
190314 511  0.3+  0.7+    190316 I47  0.3+  0.3+    190317 I52  0.1+  0.5+
190314 511  0.5+  1.2+    190316 G40  0.7-  0.9-
190314 511  0.5+  1.0+    190316 I47  0.4+  0.2+

Ephemeris:
2019 EO2                 a,e,i = 1.20, 0.23, 22                  q = 0.9253
Date    TT    R. A. (2000) Decl.     Delta      r     Elong.  Phase     V
2019 02 15    20 18 03.1 +55 49 01   0.1837  0.9455    71.5    97.9    23.2
...
2019 03 02    19 31 25.5 +61 42 01   0.08101 0.9787    79.0    96.3    21.4
...
2019 03 10    15 07 32.9 +66 31 07   0.02787 1.0013   106.6    71.8    18.2
...
2019 03 16    10 12 25.3 -18 18 43   0.02913 1.0199   150.2    29.0    17.1
2019 03 17    09 59 46.9 -25 08 38   0.03516 1.0231   143.1    35.7    17.7
2019 03 18    09 50 10.2 -29 51 57   0.04161 1.0264   138.0    40.4    18.2
...
2019 03 24    09 21 58.4 -41 27 37   0.08343 1.0465   124.7    51.6    20.1
...
2019 04 01    09 11 50.9 -45 25 14   0.1410  1.0745   119.0    54.4    21.4
...
2019 04 16    09 16 49.1 -46 59 49   0.2485  1.1294   114.5    53.9    22.7

A. U. Tomatic                (C) Copyright 2019 MPC           M.P.E.C. 2019-F07



More information about the Iaude mailing list